EW7840 Weather Reports


time (UTC)temp
F
wind
direction
speed
knots
gust
knots
rain 1hr
in
rain 24hr
in
rain mn
in
humidity
%
barometer
mb
20260507162516 59 0 0.9 2.6 0.00 0.02 0.01 48 1011.9
20260507162012 59 0 0.9 1.7 0.00 0.02 0.01 52 1012.0
20260507161514 59 0 0.0 1.7 0.00 0.02 0.01 53 1012.1
20260507161014 58 0 0.0 1.7 0.00 0.02 0.01 51 1012.2
20260507160514 58 0 0.0 2.6 0.00 0.02 0.01 51 1012.1
20260507160013 58 0 0.0 2.6 0.00 0.02 0.01 52 1012.3
20260507155513 58 0 0.0 1.7 0.00 0.02 0.01 49 1012.3
20260507155014 58 0 0.0 1.7 0.00 0.02 0.01 56 1012.2
20260507154511 58 0 0.0 1.7 0.00 0.02 0.01 53 1012.4
20260507154010 57 0 0.0 2.6 0.00 0.02 0.01 54 1012.2
20260507153511 57 0 0.0 2.6 0.00 0.02 0.01 51 1012.4
20260507153012 57 0 0.0 1.7 0.00 0.02 0.01 54 1012.4
20260507152006 56 0 0.0 0.9 0.00 0.02 0.01 53 1012.6
20260507151506 56 0 0.0 0.9 0.00 0.02 0.01 54 1012.6
20260507151005 56 0 0.0 0.9 0.00 0.02 0.01 58 1012.5
20260507150003 56 0 0.0 0.9 0.00 0.03 0.01 57 1012.7
20260507145504 55 0 0.0 0.9 0.00 0.03 0.01 60 1012.7
20260507145003 55 0 0.0 0.9 0.00 0.03 0.01 59 1012.8
20260507144503 55 0 0.0 0.9 0.00 0.03 0.01 60 1012.9
20260507144003 55 0 0.0 1.7 0.00 0.04 0.01 61 1013.0
20260507143503 55 0 0.0 1.7 0.00 0.05 0.01 61 1013.0
20260507143000 54 0 0.0 0.9 0.00 0.05 0.01 63 1013.0
20260507142458 54 0 0.0 0.9 0.00 0.06 0.01 63 1013.1
20260507141959 54 0 0.0 0.0 0.00 0.07 0.01 62 1013.0
20260507135958 54 0 0.0 0.9 0.00 0.08 0.01 62 1013.2
20260507135500 54 0 0.0 0.0 0.00 0.08 0.01 63 1013.3
20260507134959 54 0 0.0 0.9 0.00 0.08 0.01 60 1013.3
20260507133959 54 0 0.0 0.9 0.00 0.09 0.01 61 1013.6
20260507133500 54 0 0.0 0.9 0.00 0.09 0.01 60 1013.5
20260507133000 54 0 0.0 0.9 0.00 0.10 0.01 62 1013.5
20260507132458 54 0 0.0 0.9 0.00 0.12 0.01 60 1013.5
20260507132000 54 0 0.0 2.6 0.00 0.14 0.01 61 1013.4
20260507131458 54 0 0.0 2.6 0.00 0.15 0.01 62 1013.2
20260507125947 54 0 0.0 2.6 0.00 0.21 0.01 63 1013.4
20260507125440 54 0 0.0 2.6 0.00 0.22 0.01 64 1013.3
20260507124935 53 0 0.0 1.7 0.00 0.22 0.01 64 1013.1
20260507124429 53 0 0.0 0.9 0.00 0.22 0.01 66 1013.1
20260507123923 53 0 0.0 0.9 0.00 0.22 0.01 65 1013.2
20260507122911 53 0 0.0 1.7 0.00 0.22 0.01 66 1013.3
20260507122405 53 0 0.0 1.7 0.00 0.22 0.01 66 1013.3
20260507121858 53 0 0.0 0.9 0.00 0.22 0.01 68 1013.2
20260507121353 54 0 0.0 1.7 0.00 0.22 0.01 68 1013.3
20260507120846 54 0 0.0 3.5 0.00 0.22 0.01 67 1013.2
20260507120340 54 0 0.0 3.5 0.00 0.23 0.01 67 1013.2
20260507115832 54 0 0.0 3.5 0.00 0.23 0.01 69 1013.1
20260507115327 54 0 0.0 0.9 0.00 0.23 0.01 69 1013.1
20260507114821 54 0 0.0 1.7 0.00 0.23 0.01 70 1013.2
20260507114315 54 0 0.0 1.7 0.00 0.23 0.01 72 1013.0
20260507113809 54 0 0.0 1.7 0.00 0.23 0.01 74 1012.9
20260507112757 54 0 0.0 0.9 0.00 0.23 0.01 78 1012.8
20260507112250 54 0 0.0 0.9 0.00 0.23 0.01 78 1012.6
20260507111745 54 0 0.0 0.9 0.00 0.23 0.01 78 1012.6
20260507111238 54 0 0.0 0.9 0.00 0.23 0.01 78 1012.6
20260507110733 54 0 0.0 0.0 0.00 0.23 0.01 79 1012.7
20260507105232 54 0 0.0 0.0 0.00 0.23 0.01 81 1012.6
20260507104731 54 0 0.0 0.0 0.00 0.23 0.01 80 1012.6
20260507104230 54 0 0.0 0.0 0.00 0.23 0.01 81 1012.5
20260507103728 54 0 0.0 0.0 0.00 0.23 0.01 81 1012.4
20260507103224 54 0 0.0 0.0 0.00 0.23 0.01 81 1012.3
20260507102225 54 0 0.0 0.9 0.00 0.23 0.01 81 1012.3
20260507101722 54 0 0.0 0.9 0.00 0.23 0.01 81 1012.3
20260507101221 54 0 0.0 0.9 0.00 0.23 0.01 80 1012.2
20260507100719 54 0 0.0 0.0 0.00 0.23 0.01 81 1012.1
20260507100217 54 0 0.0 0.0 0.00 0.23 0.01 83 1012.0
20260507095217 54 0 0.0 0.0 0.00 0.23 0.01 81 1012.0
20260507094715 54 0 0.0 0.0 0.00 0.23 0.01 81 1012.1
20260507094212 54 0 0.0 0.0 0.00 0.23 0.01 81 1012.0
20260507093710 54 0 0.0 0.9 0.00 0.23 0.01 82 1012.1
20260507093208 54 0 0.0 1.7 0.00 0.23 0.01 81 1012.0
20260507092707 54 0 0.0 1.7 0.00 0.23 0.01 81 1012.1
20260507092205 54 0 0.0 0.9 0.00 0.23 0.01 82 1011.9
20260507091659 54 0 0.0 0.9 0.00 0.23 0.01 82 1011.7
20260507091153 54 0 0.0 0.9 0.00 0.23 0.01 82 1011.5
20260507090647 54 0 0.0 0.9 0.00 0.23 0.01 82 1011.7
20260507090141 54 0 0.0 0.9 0.00 0.23 0.01 82 1011.7
20260507085635 54 0 0.0 0.9 0.00 0.23 0.01 82 1011.7
20260507085129 54 0 0.0 0.9 0.00 0.23 0.01 82 1011.7
20260507084623 54 0 0.0 0.9 0.00 0.23 0.01 82 1011.9
20260507084117 54 0 0.0 0.9 0.00 0.23 0.01 83 1011.9
20260507083611 54 0 0.0 0.9 0.00 0.23 0.01 83 1011.8
20260507083105 54 0 0.0 0.0 0.00 0.23 0.01 84 1011.7
20260507082559 54 0 0.0 1.7 0.00 0.23 0.01 84 1011.8
20260507082054 54 0 0.0 1.7 0.00 0.23 0.01 84 1011.7
20260507081554 54 0 0.0 0.9 0.00 0.23 0.01 84 1011.8
20260507081053 54 0 0.0 0.9 0.00 0.23 0.01 84 1011.6
20260507080552 54 0 0.0 0.0 0.00 0.23 0.01 85 1011.7
20260507080051 54 0 0.0 0.9 0.00 0.23 0.01 85 1011.5
20260507075547 54 0 0.0 0.9 0.00 0.23 0.01 85 1011.2
20260507074544 54 0 0.0 0.0 0.00 0.23 0.01 86 1011.0
20260507074044 54 0 0.0 0.0 0.00 0.23 0.01 86 1011.1
20260507073544 54 0 0.0 0.0 0.00 0.23 0.01 86 1011.2
20260507073045 54 0 0.0 0.0 0.00 0.23 0.01 86 1011.3
20260507072545 54 0 0.0 0.9 0.00 0.23 0.01 86 1011.0
20260507071543 54 0 0.0 1.7 0.00 0.23 0.01 86 1011.0
20260507071043 54 0 0.0 0.9 0.00 0.23 0.01 86 1011.1
20260507070541 54 0 0.0 0.9 0.00 0.23 0.01 87 1011.1
20260507065541 54 0 0.0 0.9 0.00 0.23 0.01 88 1011.1
20260507065039 54 0 0.0 0.9 0.00 0.23 0.01 88 1011.0
20260507064538 55 0 0.0 0.9 0.00 0.23 0.01 89 1011.2
20260507064037 55 0 0.0 0.9 0.00 0.23 0.01 89 1011.2
20260507063539 55 0 0.0 0.9 0.00 0.23 0.01 89 1011.2
20260507063039 55 0 0.0 0.9 0.00 0.23 0.01 89 1011.2
20260507062536 55 0 0.0 0.9 0.00 0.23 0.01 89 1011.2
20260507062036 55 0 0.0 0.9 0.00 0.23 0.01 89 1011.3
20260507061535 55 0 0.0 0.9 0.00 0.23 0.01 90 1011.4
20260507061034 55 0 0.0 1.7 0.00 0.23 0.01 90 1011.2
20260507060535 55 0 0.0 1.7 0.00 0.23 0.01 90 1011.1
20260507055534 56 0 0.0 0.9 0.00 0.23 0.01 91 1011.1
20260507055033 56 0 0.0 0.9 0.00 0.23 0.01 91 1011.0
20260507054534 56 0 0.0 0.9 0.00 0.23 0.01 91 1011.2
20260507053035 56 0 0.0 0.0 0.00 0.23 0.01 90 1011.3
20260507052034 56 0 0.0 0.9 0.01 0.23 0.01 90 1011.1
20260507051533 56 0 0.0 0.9 0.01 0.23 0.01 89 1011.2
20260507051033 56 0 0.0 0.0 0.01 0.23 0.01 90 1011.1
20260507050534 56 0 0.0 0.0 0.01 0.23 0.01 89 1010.9
20260507050035 57 0 0.0 0.9 0.01 0.23 0.01 88 1010.3
20260507045534 57 0 0.0 0.9 0.01 0.23 0.01 88 1010.9
20260507044534 57 0 0.0 2.6 0.01 0.23 0.01 87 1011.5
20260507044035 58 0 0.0 2.6 0.01 0.23 0.01 86 1011.4
20260507043534 58 0 0.0 0.9 0.01 0.23 0.01 86 1010.9
20260507042529 59 0 0.9 1.7 0.00 0.22 0.00 84 1011.4
20260507041525 60 0 0.9 2.6 0.00 0.22 0.00 80 1011.4
20260507041024 60 0 0.0 2.6 0.00 0.22 0.00 81 1011.3
20260507040523 60 0 0.0 1.7 0.00 0.22 0.00 82 1011.3
20260507040023 60 0 0.0 0.9 0.00 0.22 0.00 82 1010.9
20260507035522 60 0 0.0 0.9 0.00 0.22 0.22 82 1010.8
20260507035023 60 0 0.0 0.0 0.00 0.22 0.22 83 1010.7
20260507034519 60 0 0.0 0.9 0.00 0.22 0.22 81 1010.5
20260507034019 61 0 0.0 1.7 0.00 0.22 0.22 81 1010.7
20260507033516 61 0 0.0 2.6 0.00 0.22 0.22 81 1010.6
20260507033016 61 0 0.9 2.6 0.00 0.22 0.22 81 1010.7
20260507032010 61 0 0.0 1.7 0.00 0.22 0.22 82 1010.6
20260507031510 61 0 0.0 1.7 0.00 0.22 0.22 82 1010.7
20260507031010 61 0 0.0 1.7 0.00 0.22 0.22 83 1011.1
20260507030511 61 0 0.0 1.7 0.00 0.22 0.22 83 1010.8
20260507030012 62 0 0.0 1.7 0.00 0.22 0.22 83 1010.5
20260507025509 62 0 0.0 1.7 0.00 0.22 0.22 83 1010.3
20260507025002 62 0 0.0 1.7 0.00 0.22 0.22 84 1010.0
20260507024457 62 0 0.0 0.9 0.00 0.22 0.22 86 1009.8
20260507023951 62 0 0.0 1.7 0.00 0.22 0.22 85 1009.7
20260507023445 62 0 0.9 4.3 0.00 0.22 0.22 85 1010.2
20260507022939 63 0 0.0 4.3 0.00 0.22 0.22 87 1010.2
20260507022432 63 0 0.0 0.9 0.00 0.22 0.22 88 1009.9
20260507021927 63 0 0.0 0.9 0.00 0.22 0.22 89 1009.9
20260507021421 63 0 0.0 0.0 0.00 0.22 0.22 89 1009.9
20260507020408 63 0 0.0 0.0 0.00 0.22 0.22 89 1009.7
20260507015903 63 0 0.0 0.0 0.00 0.22 0.22 89 1009.8
20260507015356 64 0 0.0 0.0 0.00 0.22 0.22 89 1009.7
20260507014850 64 0 0.0 0.9 0.00 0.22 0.22 89 1009.7
20260507014344 64 0 0.0 0.9 0.00 0.22 0.22 89 1009.7
20260507013838 64 0 0.0 0.9 0.00 0.22 0.22 89 1009.7
20260507012839 64 0 0.0 0.9 0.00 0.22 0.22 89 1009.6
20260507012339 65 0 0.0 0.9 0.00 0.22 0.22 90 1009.8
20260507011838 65 0 0.0 0.9 0.00 0.22 0.22 90 1009.9
20260507010334 65 0 0.0 0.9 0.00 0.22 0.22 91 1009.9
20260507005834 66 0 0.0 0.9 0.00 0.22 0.22 91 1009.8
20260507005335 66 0 0.0 0.0 0.01 0.22 0.22 91 1009.8
20260507004832 66 0 0.0 0.0 0.01 0.22 0.22 90 1009.7
20260507004329 66 0 0.0 0.0 0.01 0.22 0.22 90 1009.5
20260507003830 66 0 0.0 0.0 0.01 0.22 0.22 89 1009.5
20260507002829 67 0 0.0 0.0 0.01 0.22 0.22 88 1009.5
20260507001823 67 0 0.0 0.0 0.01 0.22 0.22 88 1009.4
20260507001325 68 0 0.0 0.0 0.01 0.22 0.22 87 1009.3
20260507000823 68 0 0.0 0.0 0.01 0.22 0.22 86 1009.2
20260507000324 68 0 0.0 0.0 0.01 0.22 0.22 85 1009.2
20260506235824 69 0 0.0 0.0 0.01 0.22 0.22 85 1009.1
20260506235325 69 0 0.0 0.0 0.00 0.21 0.21 83 1009.1
20260506234821 69 0 0.0 0.0 0.00 0.21 0.21 82 1009.2
20260506234321 69 0 0.0 0.0 0.00 0.21 0.21 81 1009.0
20260506233323 69 0 0.0 0.0 0.00 0.21 0.21 79 1008.7
20260506232821 69 0 0.0 0.9 0.00 0.21 0.21 78 1008.6
20260506231818 70 0 0.0 0.0 0.00 0.21 0.21 78 1008.5
20260506231317 70 0 0.0 0.9 0.00 0.21 0.21 78 1008.4
20260506230317 70 0 0.0 2.6 0.00 0.21 0.21 77 1008.2
20260506225817 70 0 0.0 2.6 0.00 0.21 0.21 76 1008.3
20260506225317 70 0 0.0 3.5 0.00 0.21 0.21 76 1008.3
20260506224818 70 0 0.9 3.5 0.00 0.21 0.21 77 1008.3
20260506224319 70 0 0.9 3.5 0.00 0.21 0.21 76 1008.2
20260506223813 71 0 0.0 3.5 0.00 0.21 0.21 75 1008.3
20260506222813 70 0 0.0 2.6 0.00 0.21 0.21 76 1008.0
20260506222313 70 0 0.9 2.6 0.00 0.21 0.21 76 1008.2
20260506221813 70 0 0.9 3.5 0.00 0.21 0.21 76 1008.2
20260506220813 71 0 0.9 5.2 0.00 0.21 0.21 76 1008.1
20260506220311 70 0 1.7 7.8 0.00 0.21 0.21 77 1008.0
20260506215812 70 0 1.7 7.8 0.00 0.21 0.21 77 1008.1
20260506215306 70 0 0.9 2.6 0.00 0.21 0.21 76 1008.0
20260506214757 70 0 0.9 3.5 0.00 0.21 0.21 77 1008.1
20260506214252 70 0 0.9 5.2 0.00 0.21 0.21 77 1008.1
20260506213746 70 0 1.7 7.8 0.00 0.21 0.21 77 1008.1
20260506213240 70 0 1.7 7.8 0.00 0.21 0.21 77 1008.1
20260506212734 71 0 0.9 4.3 0.00 0.21 0.21 76 1008.1
20260506212227 71 0 0.9 5.2 0.00 0.21 0.21 77 1008.0
20260506211722 70 0 1.7 7.0 0.00 0.21 0.21 76 1008.0
20260506211215 71 0 0.9 7.0 0.00 0.21 0.21 75 1008.1
20260506210710 71 0 0.9 5.2 0.00 0.21 0.21 75 1008.1
20260506210202 71 0 1.7 3.5 0.00 0.21 0.21 75 1008.0
20260506205655 71 0 1.7 4.3 0.00 0.21 0.21 75 1007.9
20260506205150 71 0 1.7 4.3 0.00 0.21 0.21 76 1007.9
20260506204643 71 0 1.7 4.3 0.00 0.21 0.21 78 1007.8
20260506204142 71 0 1.7 5.2 0.00 0.21 0.21 76 1007.7
20260506203628 70 0 1.7 8.7 0.00 0.21 0.21 76 1007.6
20260506203122 70 0 1.7 8.7 0.00 0.21 0.21 77 1007.6
20260506202616 69 0 1.7 11.3 0.00 0.21 0.21 78 1007.7
20260506202111 70 0 1.7 11.3 0.00 0.21 0.21 77 1007.7
20260506201604 69 0 1.7 4.3 0.00 0.21 0.21 78 1007.7
20260506201058 69 0 1.7 7.0 0.00 0.21 0.21 78 1007.7
20260506200548 69 0 2.6 7.0 0.00 0.21 0.21 78 1007.9
20260506200041 69 0 1.7 7.0 0.00 0.21 0.21 78 1008.0
20260506195535 69 0 1.7 7.8 0.00 0.21 0.21 78 1008.0
20260506195030 69 0 1.7 7.8 0.00 0.21 0.21 78 1008.0
20260506194524 69 0 1.7 7.0 0.00 0.21 0.21 78 1008.0
20260506194017 69 0 1.7 7.0 0.00 0.21 0.21 77 1007.9
20260506193512 69 0 1.7 5.2 0.00 0.21 0.21 77 1007.9
20260506193006 70 0 1.7 5.2 0.00 0.21 0.21 77 1008.0
20260506192504 70 0 1.7 5.2 0.00 0.21 0.21 77 1008.0
20260506192003 69 0 1.7 5.2 0.00 0.21 0.21 79 1008.0
20260506191503 69 0 1.7 5.2 0.00 0.21 0.21 78 1008.1
20260506191003 69 0 1.7 8.7 0.00 0.21 0.21 79 1008.1
20260506190502 69 0 1.7 8.7 0.00 0.21 0.21 79 1008.3
20260506190000 68 0 1.7 8.7 0.00 0.21 0.21 79 1008.2
20260506185500 68 0 1.7 9.6 0.00 0.21 0.21 81 1008.4
20260506184959 67 0 1.7 9.6 0.00 0.21 0.21 81 1008.4
20260506184459 67 0 0.9 7.8 0.00 0.21 0.21 80 1008.4
20260506183959 67 0 0.9 8.7 0.00 0.21 0.21 81 1008.5
20260506182957 67 0 1.7 4.3 0.00 0.21 0.21 81 1008.7
20260506182457 66 0 1.7 5.2 0.00 0.21 0.21 81 1008.7
20260506181956 66 0 1.7 5.2 0.00 0.21 0.21 82 1008.7
20260506181455 66 0 1.7 7.0 0.00 0.21 0.21 82 1008.9
20260506180956 66 0 1.7 7.0 0.00 0.21 0.21 81 1009.0
20260506180455 66 0 1.7 4.3 0.00 0.21 0.21 82 1009.0
20260506175956 66 0 1.7 7.0 0.00 0.21 0.21 82 1009.0
20260506175450 66 0 1.7 7.0 0.00 0.21 0.21 82 1009.0
20260506174943 66 0 1.7 7.0 0.00 0.21 0.21 82 1009.0
20260506174438 66 0 1.7 5.2 0.00 0.21 0.21 82 1009.0
20260506173932 65 0 1.7 7.0 0.00 0.21 0.21 82 1009.0
20260506173426 65 0 1.7 7.8 0.00 0.21 0.21 82 1009.0
20260506172920 65 0 1.7 7.8 0.00 0.21 0.21 83 1009.1
20260506172414 65 0 0.9 7.8 0.00 0.21 0.21 84 1009.1
20260506171908 65 0 0.9 4.3 0.00 0.21 0.21 84 1009.3
20260506170856 64 0 1.7 4.3 0.00 0.21 0.21 84 1009.2
20260506170350 64 0 1.7 8.7 0.00 0.21 0.21 85 1009.3
20260506165844 64 0 1.7 8.7 0.00 0.21 0.21 85 1009.2
20260506165338 64 0 1.7 7.0 0.00 0.21 0.21 85 1009.3
20260506164835 64 0 1.7 8.7 0.00 0.21 0.21 86 1009.2
20260506164335 64 0 2.6 10.4 0.00 0.21 0.21 86 1009.3
20260506163336 64 0 2.6 9.6 0.00 0.21 0.21 87 1009.2
20260506162833 63 0 2.6 8.7 0.00 0.21 0.21 88 1009.5